This is the latest recevied weather packets stored in our database for station/object WB9ZLM. If no packets are shown the sender has not sent any weather packets the latest 10 day(s).
| Time | Temp. | Humidity | Pressure | Rain* | Wind** | Luminosity | Snow |
|---|---|---|---|---|---|---|---|
| 1777995121 | 10.56° C | 56% | 1012.5 hPa | 0 mm | - | - | - |
| 1777995060 | 10.56° C | 56% | 1012.5 hPa | 0 mm | - | - | - |
| 1777994221 | 11.11° C | 58% | 1012.4 hPa | 0 mm | - | - | - |
| 1777994160 | 11.11° C | 58% | 1012.4 hPa | 0 mm | - | - | - |
| 1777993322 | 11.11° C | 65% | 1012.4 hPa | 0 mm | - | - | - |
| 1777993260 | 11.11° C | 65% | 1012.4 hPa | 0 mm | - | - | - |
| 1777992421 | 10° C | 64% | 1012.1 hPa | 0 mm | - | - | - |
| 1777992360 | 10° C | 64% | 1012.1 hPa | 0 mm | - | - | - |
| 1777991521 | 10° C | 66% | 1011.9 hPa | 0 mm | - | - | - |
| 1777991461 | 10° C | 66% | 1011.9 hPa | 0 mm | - | - | - |
| 1777990622 | 10° C | 68% | 1011.9 hPa | 0 mm | - | - | - |
| 1777990560 | 10° C | 68% | 1011.9 hPa | 0 mm | - | - | - |
| 1777989721 | 9.44° C | 69% | 1011.9 hPa | 0 mm | - | - | - |
| 1777989660 | 9.44° C | 69% | 1011.9 hPa | 0 mm | - | - | - |
| 1777988822 | 9.44° C | 68% | 1012.3 hPa | 0 mm | - | - | - |
| 1777988760 | 9.44° C | 68% | 1012.3 hPa | 0 mm | - | - | - |
| 1777987921 | 10° C | 68% | 1012.4 hPa | 0 mm | - | - | - |
| 1777987860 | 10° C | 68% | 1012.4 hPa | 0 mm | - | - | - |
| 1777987021 | 10° C | 66% | 1012.4 hPa | 0 mm | - | - | - |
| 1777986960 | 10° C | 66% | 1012.4 hPa | 0 mm | - | - | - |
| 1777986121 | 10° C | 66% | 1012.5 hPa | 0 mm | - | - | - |
| 1777986060 | 10° C | 66% | 1012.5 hPa | 0 mm | - | - | - |
| 1777985221 | 10° C | 66% | 1013 hPa | 0 mm | - | - | - |
| 1777985160 | 10° C | 66% | 1013 hPa | 0 mm | - | - | - |
| 1777984321 | 10° C | 66% | 1013.4 hPa | 0 mm | - | - | - |
* Rain latest hour (hover to see other rain measurements)
** Current wind speed in m/s (hover to see current wind gust speed)